Regional Weather Roundup
Issued by NWS

Home | Current Version | Previous Version | Text Only | Print | Product List | Glossary Off
Versions: 1 2 3 4 5 6 7 8 9 10 11 12 13 14 15 16 17 18 19 20 21 22 23 24 25 26 27 28 29 30 31 32 33 34 35 36 37 38 39 40 41 42 43 44 45 46 47 48 49 50

000
ASUS43 KDMX 290807
RWRIA

WEATHER ROUNDUP FOR IOWA
NATIONAL WEATHER SERVICE DES MOINES IA
300 AM CDT WED JUL 29 2015

NOTE: "FAIR" INDICATES FEW OR NO CLOUDS BELOW 12,000 FEET WITH NO
SIGNIFICANT WEATHER AND/OR OBSTRUCTIONS TO VISIBILITY.

* - THESE STATIONS ARE NOT NWS STATIONS...THUS NOT UNDER NWS
QUALITY CONTROL.  THEY ALSO DO NOT REPORT WEATHER SUCH
AS PRECIPITATION OR FOG.

IAZ001>003-012>014-020>022-031>034-043>046-290900-
   NORTHWEST IOWA

CITY           SKY/WX    TMP DP  RH WIND       PRES   REMARKS
CARROLL *      CLEAR     64  64 100 W6        30.05S
CHEROKEE *     PTCLDY    59  59 100 CALM      30.06F
DENISON *      CLEAR     61  61 100 CALM      30.06R
LE MARS *      CLEAR     57  57 100 CALM      30.08S
ORANGE CITY *  CLEAR     59  55  88 CALM      30.08R
SHELDON *      CLEAR     55  55 100 CALM      30.06S
SIOUX CITY     CLEAR     61  58  90 W5        30.08S
SPENCER        CLEAR     58  55  90 W6        30.06S
STORM LAKE *   CLEAR     61  59  94 W8        30.08R
$$

IAZ055>058-069>071-079>083-090>094-290900-
   SOUTHWEST IOWA

CITY           SKY/WX    TMP DP  RH WIND       PRES   REMARKS
ATLANTIC *     CLEAR     66  64  94 CALM      30.05S
AUDUBON *      CLEAR     64  63  94 CALM      30.07R
CLARINDA *     CLOUDY    73  72  94 N7        30.06R
COUNCIL BLFS * CLEAR     66  63  88 NE7       30.07R
CRESTON *      CLOUDY    70  70 100 CALM      30.05S
HARLAN  *      CLEAR     63  63 100 CALM      30.10R
LAMONI         LGT RAIN  71  70  96 E6        29.99F
RED OAK *      PTCLDY    68  64  88 N6        30.06R
SHENANDOAH *   CLEAR     70  66  88 N5        30.06R
$$

IAZ047>049-059>061-072>074-084-290900-
   CENTRAL IOWA

CITY           SKY/WX    TMP DP  RH WIND       PRES   REMARKS
AMES           CLOUDY    71  70  96 NW6       30.02S
ANKENY *       CLOUDY    73  70  88 NW7       30.01S
CHARITON *     LGT RAIN  70  70 100 NW5       30.03S
DES MOINES     CLOUDY    73  70  90 SW3       30.01S
GRINNELL*      CLOUDY    70  68  94 W3        30.02R
KNOXVILLE *    CLOUDY    70  68  94 W7        30.01S
MARSHALLTOWN   CLOUDY    70  68  93 NW6       30.00R
PELLA *        LGT RAIN  72  72 100 W7        30.02S
PERRY *        CLOUDY    55  48  76 NW3       30.03S
$$

IAZ004>006-015-016-023>025-035-036-290900-
   NORTH CENTRAL IOWA

CITY           SKY/WX    TMP DP  RH WIND       PRES   REMARKS
ALGONA *       CLEAR     63  61  94 W7        30.04F
CLARION *      CLEAR     63  61  94 SW5       30.03S
ESTHERVILLE    CLEAR     60  58  92 W8        30.04S
FORT DODGE *   CLOUDY    64  61  88 W3        30.04S
MASON CITY     CLOUDY    63  61  93 W10       30.03R
FOREST CITY *  CLEAR     61  59  94 W6        30.02S
IOWA FALLS *   CLOUDY    68  64  88 NW3       30.03S
$$

IAZ007>011-017>019-026>030-037>042-050>054-066-290900-
   NORTHEAST IOWA

CITY           SKY/WX    TMP DP  RH WIND       PRES   REMARKS
CEDAR RAPIDS   RAIN      71  71 100 W9        29.98R
CHARLES CITY * CLOUDY    68  66  94 W6        30.00S
CLINTON *      CLOUDY    73  72  94 W5        29.97R
DECORAH *      CLOUDY    72  68  88 NW7       29.97R
DUBUQUE        CLOUDY    73  71  93 SW5       29.97R
MONTICELLO *   CLOUDY    73  72  94 CALM      29.97R
OELWEIN *        N/A     72  70  94 W8        29.99R
WATERLOO       CLOUDY    72  65  78 W7        29.99R
$$

IAZ064-065-067-068-078-290900-
   EAST CENTRAL IOWA

CITY           SKY/WX    TMP DP  RH WIND       PRES   REMARKS
DAVENPORT      CLOUDY    74  70  87 NW6       29.96R
IOWA CITY      LGT RAIN  72  70  93 NW5       29.99R
MT. PLEASANT * LGT RAIN  73  70  88 N7        29.98R
MUSCATINE *    LGT RAIN  73  70  88 NW12      29.98R
QUAD CITIES    CLOUDY    77  72  84 W8        29.95R
$$

IAZ062-063-075>077-085>089-095>099-290900-
   SOUTHEAST IOWA

CITY           SKY/WX    TMP DP  RH WIND       PRES   REMARKS
BURLINGTON     CLOUDY    73  71  93 NW8       29.96R
FAIRFIELD *    LGT RAIN  72  70  94 W10G17    29.99R
FORT MADISON * CLEAR     72  72 100 W8        29.97R
KEOKUK *       CLEAR     73  70  88 W7        29.96R
OSKALOOSA *    RAIN      70  68  94 W5        30.00S
CENTERVILLE *  RAIN      70  68  94 S5        30.03S
OTTUMWA        RAIN      70  70 100 W6        29.98R FOG
WASHINGTON *   LGT RAIN  72  72 100 W6        30.01R
$$

ABBREVIATIONS USED IN REMARKS
   TC - TEMPERATURES IN CELSIUS
  WCI - WIND CHILL INDEX
   HX - HEAT INDEX
  VSB - VISIBILITY
$$



USA.gov is the U.S. government's official web portal to all federal, state and local government web resources and services.